| time (UTC) | temp F | wind direction | speed MPH | gust MPH | rain 1hr in | rain 24hr in | rain mn in | humidity % | barometer mb |
| 20260506091057 | 57 | 77 | 2.0 | 4.0 | 0.00 | 0.00 | 0.00 | 77 | 1010.2 |
| 20260506090555 | 57 | 336 | 2.0 | 5.0 | 0.00 | 0.00 | 0.00 | 77 | 1010.1 |
| 20260506090051 | 57 | 76 | 1.0 | 4.0 | 0.00 | 0.00 | 0.00 | 77 | 1010.2 |
| 20260506085548 | 57 | 70 | 3.0 | 6.0 | 0.00 | 0.00 | 0.00 | 77 | 1010.0 |
| 20260506085044 | 57 | 76 | 4.0 | 6.0 | 0.00 | 0.00 | 0.00 | 77 | 1010.2 |
| 20260506084541 | 57 | 47 | 2.0 | 3.0 | 0.00 | 0.00 | 0.00 | 77 | 1010.1 |
| 20260506084037 | 57 | 16 | 2.0 | 4.0 | 0.00 | 0.00 | 0.00 | 77 | 1010.2 |
| 20260506083535 | 57 | 13 | 1.0 | 4.0 | 0.00 | 0.00 | 0.00 | 77 | 1010.2 |
| 20260506083032 | 57 | 348 | 2.0 | 4.0 | 0.00 | 0.00 | 0.00 | 77 | 1010.1 |
| 20260506082529 | 57 | 58 | 1.0 | 3.0 | 0.00 | 0.00 | 0.00 | 77 | 1010.0 |
| 20260506082024 | 57 | 282 | 2.0 | 4.0 | 0.00 | 0.00 | 0.00 | 77 | 1010.0 |
| 20260506081523 | 57 | 320 | 1.0 | 4.0 | 0.00 | 0.00 | 0.00 | 77 | 1010.0 |
| 20260506081020 | 57 | 291 | 3.0 | 6.0 | 0.00 | 0.00 | 0.00 | 77 | 1010.1 |
| 20260506080517 | 57 | 61 | 2.0 | 5.0 | 0.00 | 0.00 | 0.00 | 77 | 1010.3 |
| 20260506073501 | 57 | 56 | 0.0 | 2.0 | 0.00 | 0.00 | 0.00 | 78 | 1010.1 |
| 20260506072958 | 57 | 323 | 3.0 | 4.0 | 0.00 | 0.00 | 0.00 | 78 | 1010.4 |
| 20260506072455 | 58 | 332 | 3.0 | 6.0 | 0.00 | 0.00 | 0.00 | 77 | 1010.0 |
| 20260506071953 | 58 | 32 | 2.0 | 6.0 | 0.00 | 0.00 | 0.00 | 77 | 1010.3 |
| 20260506071451 | 58 | 78 | 2.0 | 4.0 | 0.00 | 0.00 | 0.00 | 77 | 1010.2 |
| 20260506070947 | 58 | 51 | 3.0 | 5.0 | 0.00 | 0.00 | 0.00 | 77 | 1010.1 |
| 20260506070444 | 58 | 42 | 3.0 | 8.0 | 0.00 | 0.00 | 0.00 | 77 | 1010.2 |
| 20260506062422 | 59 | 353 | 3.0 | 6.0 | 0.00 | 0.00 | 0.00 | 78 | 1010.0 |
| 20260506061918 | 59 | 349 | 1.0 | 5.0 | 0.00 | 0.00 | 0.00 | 78 | 1010.1 |
| 20260506061414 | 59 | 331 | 3.0 | 6.0 | 0.00 | 0.00 | 0.00 | 78 | 1009.8 |
| 20260506060912 | 59 | 303 | 3.0 | 8.0 | 0.00 | 0.00 | 0.00 | 77 | 1010.1 |
| 20260506060410 | 59 | 43 | 2.0 | 6.0 | 0.00 | 0.00 | 0.00 | 77 | 1009.7 |
| 20260506051342 | 60 | 309 | 2.0 | 6.0 | 0.00 | 0.00 | 0.00 | 79 | 1009.5 |
| 20260506050839 | 60 | 14 | 2.0 | 5.0 | 0.00 | 0.00 | 0.00 | 78 | 1009.5 |
| 20260506050337 | 60 | 313 | 6.0 | 13.0 | 0.00 | 0.00 | 0.00 | 78 | 1009.8 |
| 20260506044827 | 61 | 322 | 3.0 | 5.0 | 0.00 | 0.00 | 0.00 | 78 | 1009.6 |
| 20260506044325 | 61 | 42 | 5.0 | 10.0 | 0.00 | 0.00 | 0.00 | 78 | 1009.2 |
| 20260506043822 | 62 | 335 | 2.0 | 4.0 | 0.00 | 0.00 | 0.00 | 78 | 1009.1 |
| 20260506043319 | 62 | 45 | 1.0 | 8.0 | 0.00 | 0.00 | 0.00 | 78 | 1009.2 |
| 20260506042818 | 62 | 348 | 5.0 | 9.0 | 0.00 | 0.00 | 0.00 | 78 | 1009.3 |
| 20260506042317 | 62 | 289 | 3.0 | 11.0 | 0.00 | 0.00 | 0.00 | 78 | 1009.3 |
| 20260506041815 | 62 | 307 | 5.0 | 8.0 | 0.00 | 0.00 | 0.00 | 77 | 1009.2 |
| 20260506041311 | 63 | 307 | 4.0 | 11.0 | 0.00 | 0.00 | 0.00 | 77 | 1009.1 |
| 20260506040809 | 63 | 309 | 9.0 | 12.0 | 0.00 | 0.00 | 0.00 | 76 | 1008.8 |
| 20260506040306 | 64 | 303 | 3.0 | 11.0 | 0.00 | 0.00 | 0.00 | 76 | 1009.0 |
| 20260506035802 | 64 | 290 | 6.0 | 10.0 | 0.00 | 0.00 | 0.00 | 76 | 1009.2 |
| 20260506035259 | 65 | 333 | 4.0 | 6.0 | 0.00 | 0.00 | 0.00 | 76 | 1008.9 |
| 20260506034756 | 66 | 343 | 4.0 | 9.0 | 0.00 | 0.00 | 0.00 | 76 | 1008.8 |
| 20260506034253 | 66 | 256 | 5.0 | 6.0 | 0.00 | 0.00 | 0.00 | 76 | 1008.5 |
| 20260506033750 | 66 | 356 | 1.0 | 8.0 | 0.00 | 0.00 | 0.00 | 75 | 1008.7 |
| 20260506033247 | 67 | 318 | 3.0 | 6.0 | 0.00 | 0.00 | 0.00 | 75 | 1008.8 |
| 20260506032744 | 68 | 60 | 4.0 | 9.0 | 0.00 | 0.00 | 0.00 | 76 | 1008.4 |
| 20260506032241 | 68 | 325 | 3.0 | 13.0 | 0.00 | 0.00 | 0.00 | 75 | 1008.7 |
| 20260506031738 | 68 | 337 | 3.0 | 7.0 | 0.00 | 0.00 | 0.00 | 75 | 1008.2 |
| 20260506031235 | 69 | 358 | 7.0 | 18.0 | 0.00 | 0.00 | 0.00 | 74 | 1008.3 |
| 20260506030733 | 70 | 352 | 7.0 | 14.0 | 0.00 | 0.00 | 0.00 | 73 | 1008.2 |
| 20260506030231 | 71 | 306 | 6.0 | 7.0 | 0.00 | 0.00 | 0.00 | 74 | 1007.9 |
| 20260506025727 | 72 | 307 | 11.0 | 11.0 | 0.00 | 0.00 | 0.00 | 73 | 1007.7 |
| 20260506025224 | 73 | 333 | 4.0 | 8.0 | 0.00 | 0.00 | 0.00 | 74 | 1007.2 |
| 20260506024721 | 74 | 328 | 5.0 | 6.0 | 0.00 | 0.00 | 0.00 | 73 | 1007.4 |
| 20260506024217 | 74 | 306 | 3.0 | 6.0 | 0.00 | 0.00 | 0.00 | 72 | 1007.4 |
| 20260506023713 | 75 | 320 | 4.0 | 9.0 | 0.00 | 0.00 | 0.00 | 72 | 1006.8 |
| 20260506023211 | 75 | 291 | 6.0 | 6.0 | 0.00 | 0.00 | 0.00 | 71 | 1006.9 |
| 20260506022708 | 76 | 342 | 0.0 | 3.0 | 0.00 | 0.00 | 0.00 | 73 | 1006.8 |
| 20260506022205 | 76 | 263 | 3.0 | 5.0 | 0.00 | 0.00 | 0.00 | 75 | 1006.9 |
| 20260506021703 | 77 | 262 | 3.0 | 5.0 | 0.00 | 0.00 | 0.00 | 76 | 1007.0 |
| 20260506021200 | 77 | 254 | 4.0 | 4.0 | 0.00 | 0.00 | 0.00 | 77 | 1006.9 |
| 20260506020657 | 77 | 269 | 2.0 | 2.0 | 0.00 | 0.00 | 0.00 | 77 | 1006.5 |
| 20260506020155 | 77 | 313 | 0.0 | 2.0 | 0.00 | 0.00 | 0.00 | 78 | 1006.3 |
| 20260506015652 | 77 | 222 | 2.0 | 4.0 | 0.00 | 0.00 | 0.00 | 78 | 1006.7 |
| 20260506015149 | 77 | 271 | 5.0 | 6.0 | 0.00 | 0.00 | 0.00 | 79 | 1006.8 |
| 20260506014647 | 77 | 268 | 2.0 | 4.0 | 0.00 | 0.00 | 0.00 | 78 | 1006.7 |
| 20260506014142 | 77 | 260 | 3.0 | 5.0 | 0.00 | 0.00 | 0.00 | 78 | 1006.5 |
| 20260506013640 | 78 | 273 | 2.0 | 3.0 | 0.00 | 0.00 | 0.00 | 77 | 1006.2 |
| 20260506013137 | 78 | 297 | 0.0 | 2.0 | 0.00 | 0.00 | 0.00 | 77 | 1006.1 |
| 20260506012633 | 78 | 184 | 3.0 | 3.0 | 0.00 | 0.00 | 0.00 | 76 | 1005.8 |
| 20260506012130 | 78 | 168 | 3.0 | 5.0 | 0.00 | 0.00 | 0.00 | 76 | 1006.0 |
| 20260506011628 | 78 | 164 | 4.0 | 4.0 | 0.00 | 0.00 | 0.00 | 75 | 1006.0 |
| 20260506011123 | 78 | 169 | 3.0 | 5.0 | 0.00 | 0.00 | 0.00 | 75 | 1006.0 |
| 20260506010623 | 78 | 179 | 0.0 | 4.0 | 0.00 | 0.00 | 0.00 | 75 | 1006.2 |
| 20260506010119 | 78 | 175 | 5.0 | 9.0 | 0.00 | 0.00 | 0.00 | 75 | 1006.3 |
| 20260506005616 | 78 | 162 | 3.0 | 10.0 | 0.00 | 0.00 | 0.00 | 75 | 1006.1 |
| 20260506005112 | 78 | 164 | 2.0 | 9.0 | 0.00 | 0.00 | 0.00 | 75 | 1005.9 |
| 20260506004609 | 78 | 166 | 3.0 | 11.0 | 0.00 | 0.00 | 0.00 | 75 | 1005.7 |
| 20260506004106 | 79 | 162 | 3.0 | 6.0 | 0.00 | 0.00 | 0.00 | 75 | 1005.6 |
| 20260506003602 | 79 | 139 | 3.0 | 7.0 | 0.00 | 0.00 | 0.00 | 75 | 1005.5 |
| 20260506003059 | 79 | 169 | 6.0 | 8.0 | 0.00 | 0.00 | 0.00 | 75 | 1005.7 |
| 20260506002554 | 79 | 165 | 5.0 | 9.0 | 0.00 | 0.00 | 0.00 | 74 | 1005.7 |
| 20260506002051 | 79 | 175 | 5.0 | 6.0 | 0.00 | 0.00 | 0.00 | 74 | 1005.6 |
| 20260506001547 | 79 | 176 | 3.0 | 8.0 | 0.00 | 0.00 | 0.00 | 74 | 1005.7 |
| 20260506001044 | 80 | 145 | 4.0 | 6.0 | 0.00 | 0.00 | 0.00 | 74 | 1005.5 |
| 20260506000542 | 80 | 158 | 3.0 | 7.0 | 0.00 | 0.00 | 0.00 | 73 | 1005.4 |
| 20260506000039 | 80 | 151 | 3.0 | 8.0 | 0.00 | 0.00 | 0.00 | 73 | 1005.3 |
| 20260505235537 | 80 | 217 | 3.0 | 6.0 | 0.00 | 0.00 | 0.00 | 73 | 1005.2 |
| 20260505235034 | 80 | 190 | 5.0 | 8.0 | 0.00 | 0.00 | 0.00 | 72 | 1005.5 |
| 20260505234531 | 80 | 159 | 3.0 | 7.0 | 0.00 | 0.00 | 0.00 | 73 | 1005.3 |
| 20260505234027 | 80 | 175 | 3.0 | 5.0 | 0.00 | 0.00 | 0.00 | 73 | 1005.5 |
| 20260505233525 | 80 | 167 | 6.0 | 10.0 | 0.00 | 0.00 | 0.00 | 72 | 1005.5 |
| 20260505233022 | 80 | 183 | 3.0 | 10.0 | 0.00 | 0.00 | 0.00 | 71 | 1005.3 |
| 20260505232520 | 81 | 193 | 4.0 | 9.0 | 0.00 | 0.00 | 0.00 | 71 | 1005.3 |
| 20260505232017 | 82 | 160 | 6.0 | 8.0 | 0.00 | 0.00 | 0.00 | 70 | 1005.3 |
| 20260505231514 | 81 | 181 | 5.0 | 10.0 | 0.00 | 0.00 | 0.00 | 71 | 1005.3 |
| 20260505231013 | 81 | 162 | 4.0 | 9.0 | 0.00 | 0.00 | 0.00 | 71 | 1005.2 |
| 20260505230510 | 81 | 143 | 7.0 | 12.0 | 0.00 | 0.00 | 0.00 | 70 | 1005.3 |
| 20260505230007 | 82 | 161 | 5.0 | 10.0 | 0.00 | 0.00 | 0.00 | 69 | 1005.3 |
| 20260505225503 | 83 | 165 | 7.0 | 11.0 | 0.00 | 0.00 | 0.00 | 68 | 1005.1 |
| 20260505224959 | 83 | 150 | 8.0 | 17.0 | 0.00 | 0.00 | 0.00 | 68 | 1005.0 |
| 20260505224456 | 83 | 170 | 5.0 | 9.0 | 0.00 | 0.00 | 0.00 | 67 | 1004.8 |
| 20260505223953 | 83 | 171 | 9.0 | 11.0 | 0.00 | 0.00 | 0.00 | 67 | 1005.2 |
| 20260505223450 | 84 | 173 | 6.0 | 8.0 | 0.00 | 0.00 | 0.00 | 68 | 1005.1 |
| 20260505222946 | 84 | 190 | 2.0 | 8.0 | 0.00 | 0.00 | 0.00 | 68 | 1005.2 |
| 20260505222443 | 83 | 169 | 6.0 | 11.0 | 0.00 | 0.00 | 0.00 | 68 | 1005.1 |
| 20260505221938 | 83 | 170 | 5.0 | 11.0 | 0.00 | 0.00 | 0.00 | 68 | 1005.1 |
| 20260505221436 | 84 | 204 | 1.0 | 8.0 | 0.00 | 0.00 | 0.00 | 68 | 1005.2 |
| 20260505220933 | 82 | 150 | 4.0 | 8.0 | 0.00 | 0.00 | 0.00 | 70 | 1005.1 |
| 20260505220430 | 83 | 185 | 4.0 | 7.0 | 0.00 | 0.00 | 0.00 | 69 | 1005.2 |
| 20260505215928 | 83 | 165 | 7.0 | 10.0 | 0.00 | 0.00 | 0.00 | 67 | 1005.3 |
| 20260505215426 | 84 | 171 | 7.0 | 9.0 | 0.00 | 0.00 | 0.00 | 66 | 1005.5 |
| 20260505214923 | 84 | 155 | 5.0 | 10.0 | 0.00 | 0.00 | 0.00 | 67 | 1005.1 |
| 20260505214421 | 84 | 165 | 3.0 | 14.0 | 0.00 | 0.00 | 0.00 | 68 | 1005.2 |
| 20260505213918 | 83 | 162 | 9.0 | 12.0 | 0.00 | 0.00 | 0.00 | 67 | 1005.2 |
| 20260505213416 | 82 | 147 | 4.0 | 8.0 | 0.00 | 0.00 | 0.00 | 68 | 1005.1 |
| 20260505212912 | 82 | 147 | 6.0 | 8.0 | 0.00 | 0.00 | 0.00 | 69 | 1005.4 |
| 20260505212409 | 82 | 161 | 5.0 | 9.0 | 0.00 | 0.00 | 0.00 | 68 | 1005.5 |
| 20260505211905 | 82 | 221 | 4.0 | 9.0 | 0.00 | 0.00 | 0.00 | 68 | 1005.5 |
| 20260505211403 | 82 | 162 | 6.0 | 6.0 | 0.00 | 0.00 | 0.00 | 68 | 1005.5 |
| 20260505210859 | 82 | 179 | 4.0 | 9.0 | 0.00 | 0.00 | 0.00 | 68 | 1005.6 |
| 20260505210356 | 82 | 161 | 3.0 | 10.0 | 0.00 | 0.00 | 0.00 | 67 | 1005.7 |
| 20260505205852 | 85 | 151 | 11.0 | 12.0 | 0.00 | 0.00 | 0.00 | 65 | 1005.6 |
| 20260505205351 | 84 | 12 | 3.0 | 6.0 | 0.00 | 0.00 | 0.00 | 66 | 1005.5 |
| 20260505204847 | 85 | 104 | 2.0 | 10.0 | 0.00 | 0.00 | 0.00 | 65 | 1005.5 |
| 20260505204345 | 85 | 149 | 6.0 | 8.0 | 0.00 | 0.00 | 0.00 | 67 | 1005.5 |
| 20260505203842 | 84 | 198 | 2.0 | 10.0 | 0.00 | 0.00 | 0.00 | 65 | 1005.5 |
| 20260505203338 | 84 | 156 | 4.0 | 6.0 | 0.00 | 0.00 | 0.00 | 66 | 1005.5 |
| 20260505202835 | 83 | 214 | 6.0 | 10.0 | 0.00 | 0.00 | 0.00 | 67 | 1005.6 |
| 20260505202331 | 81 | 162 | 6.0 | 14.0 | 0.00 | 0.00 | 0.00 | 69 | 1005.7 |
| 20260505201828 | 81 | 149 | 9.0 | 17.0 | 0.00 | 0.00 | 0.00 | 69 | 1005.8 |
| 20260505201326 | 82 | 175 | 5.0 | 14.0 | 0.00 | 0.00 | 0.00 | 68 | 1005.8 |
| 20260505200824 | 82 | 139 | 9.0 | 12.0 | 0.00 | 0.00 | 0.00 | 70 | 1005.8 |
| 20260505200320 | 82 | 196 | 4.0 | 10.0 | 0.00 | 0.00 | 0.00 | 70 | 1005.8 |
| 20260505195815 | 82 | 185 | 5.0 | 10.0 | 0.00 | 0.00 | 0.00 | 69 | 1006.0 |
| 20260505195314 | 82 | 199 | 4.0 | 13.0 | 0.00 | 0.00 | 0.00 | 70 | 1005.7 |
| 20260505194810 | 82 | 147 | 12.0 | 14.0 | 0.00 | 0.00 | 0.00 | 68 | 1005.7 |
| 20260505194308 | 81 | 183 | 4.0 | 10.0 | 0.00 | 0.00 | 0.00 | 69 | 1005.8 |
| 20260505193803 | 82 | 206 | 3.0 | 7.0 | 0.00 | 0.00 | 0.00 | 70 | 1006.0 |
| 20260505193301 | 81 | 144 | 5.0 | 5.0 | 0.00 | 0.00 | 0.00 | 70 | 1005.8 |
| 20260505192759 | 80 | 163 | 5.0 | 14.0 | 0.00 | 0.00 | 0.00 | 70 | 1005.9 |
| 20260505192256 | 81 | 149 | 3.0 | 12.0 | 0.00 | 0.00 | 0.00 | 70 | 1006.0 |
| 20260505191754 | 80 | 158 | 7.0 | 10.0 | 0.00 | 0.00 | 0.00 | 70 | 1005.9 |
| 20260505191252 | 80 | 191 | 3.0 | 14.0 | 0.00 | 0.00 | 0.00 | 70 | 1006.2 |
| 20260505190748 | 79 | 188 | 5.0 | 12.0 | 0.00 | 0.00 | 0.00 | 71 | 1006.0 |
| 20260505190243 | 80 | 153 | 6.0 | 12.0 | 0.00 | 0.00 | 0.00 | 70 | 1006.1 |
| 20260505185740 | 80 | 115 | 3.0 | 14.0 | 0.00 | 0.00 | 0.00 | 71 | 1005.9 |
| 20260505185237 | 80 | 155 | 6.0 | 11.0 | 0.00 | 0.00 | 0.00 | 71 | 1005.8 |
| 20260505184732 | 80 | 170 | 6.0 | 14.0 | 0.00 | 0.00 | 0.00 | 71 | 1005.8 |
| 20260505184230 | 80 | 174 | 5.0 | 16.0 | 0.00 | 0.00 | 0.00 | 70 | 1005.9 |
| 20260505183727 | 80 | 163 | 4.0 | 17.0 | 0.00 | 0.00 | 0.00 | 71 | 1005.9 |
| 20260505183224 | 80 | 173 | 4.0 | 12.0 | 0.00 | 0.00 | 0.00 | 71 | 1005.8 |
| 20260505182720 | 80 | 157 | 6.0 | 7.0 | 0.00 | 0.00 | 0.00 | 70 | 1005.8 |
| 20260505182218 | 80 | 248 | 4.0 | 9.0 | 0.00 | 0.00 | 0.00 | 69 | 1005.8 |
| 20260505181714 | 81 | 162 | 12.0 | 15.0 | 0.00 | 0.00 | 0.00 | 68 | 1006.0 |
| 20260505181212 | 81 | 267 | 3.0 | 7.0 | 0.00 | 0.00 | 0.00 | 69 | 1005.8 |
| 20260505180708 | 81 | 172 | 7.0 | 13.0 | 0.00 | 0.00 | 0.00 | 69 | 1005.8 |
| 20260505180205 | 80 | 171 | 5.0 | 18.0 | 0.00 | 0.00 | 0.00 | 70 | 1005.8 |
| 20260505175700 | 79 | 182 | 7.0 | 16.0 | 0.00 | 0.00 | 0.00 | 71 | 1005.7 |
| 20260505175157 | 79 | 157 | 8.0 | 22.0 | 0.00 | 0.00 | 0.00 | 70 | 1005.8 |
| 20260505174654 | 79 | 164 | 7.0 | 14.0 | 0.00 | 0.00 | 0.00 | 70 | 1006.1 |
| 20260505174150 | 80 | 168 | 7.0 | 12.0 | 0.00 | 0.00 | 0.00 | 70 | 1005.9 |
| 20260505173647 | 79 | 172 | 10.0 | 14.0 | 0.00 | 0.00 | 0.00 | 70 | 1006.2 |
| 20260505173144 | 79 | 155 | 10.0 | 14.0 | 0.00 | 0.00 | 0.00 | 70 | 1006.2 |
| 20260505172641 | 78 | 167 | 9.0 | 18.0 | 0.00 | 0.00 | 0.00 | 72 | 1006.2 |
| 20260505172138 | 79 | 167 | 6.0 | 19.0 | 0.00 | 0.00 | 0.00 | 70 | 1006.1 |
| 20260505171637 | 78 | 156 | 7.0 | 13.0 | 0.00 | 0.00 | 0.00 | 73 | 1006.4 |
| 20260505171135 | 78 | 173 | 7.0 | 13.0 | 0.00 | 0.00 | 0.00 | 71 | 1006.7 |
| 20260505170632 | 78 | 147 | 6.0 | 14.0 | 0.00 | 0.00 | 0.00 | 73 | 1006.8 |
| 20260505170128 | 77 | 166 | 10.0 | 15.0 | 0.00 | 0.00 | 0.00 | 72 | 1006.8 |
| 20260505165623 | 77 | 185 | 8.0 | 10.0 | 0.00 | 0.00 | 0.00 | 73 | 1006.7 |
| 20260505165120 | 77 | 168 | 9.0 | 14.0 | 0.00 | 0.00 | 0.00 | 73 | 1006.4 |
| 20260505164615 | 77 | 179 | 8.0 | 16.0 | 0.00 | 0.00 | 0.00 | 73 | 1006.3 |
| 20260505164113 | 77 | 174 | 8.0 | 16.0 | 0.00 | 0.00 | 0.00 | 73 | 1006.4 |
| 20260505163612 | 77 | 158 | 7.0 | 17.0 | 0.00 | 0.00 | 0.00 | 75 | 1006.0 |
| 20260505163109 | 77 | 161 | 9.0 | 18.0 | 0.00 | 0.00 | 0.00 | 73 | 1006.1 |
| 20260505162606 | 77 | 166 | 3.0 | 12.0 | 0.00 | 0.00 | 0.00 | 74 | 1006.0 |
| 20260505162104 | 76 | 220 | 2.0 | 9.0 | 0.00 | 0.00 | 0.00 | 76 | 1005.9 |
| 20260505161600 | 76 | 180 | 7.0 | 17.0 | 0.00 | 0.00 | 0.00 | 75 | 1006.0 |
| 20260505161058 | 76 | 185 | 8.0 | 14.0 | 0.00 | 0.00 | 0.00 | 76 | 1005.9 |
| 20260505160555 | 76 | 165 | 9.0 | 15.0 | 0.00 | 0.00 | 0.00 | 78 | 1005.8 |
| 20260505153032 | 75 | 179 | 8.0 | 15.0 | 0.00 | 0.00 | 0.00 | 77 | 1006.3 |
| 20260505152529 | 74 | 171 | 7.0 | 12.0 | 0.00 | 0.00 | 0.00 | 78 | 1006.1 |
| 20260505152025 | 74 | 165 | 9.0 | 16.0 | 0.00 | 0.00 | 0.00 | 78 | 1006.0 |
| 20260505151520 | 73 | 226 | 5.0 | 13.0 | 0.00 | 0.00 | 0.00 | 79 | 1006.2 |
| 20260505151017 | 74 | 173 | 5.0 | 17.0 | 0.00 | 0.00 | 0.00 | 78 | 1006.0 |
| 20260505150514 | 74 | 177 | 7.0 | 9.0 | 0.00 | 0.00 | 0.00 | 80 | 1005.9 |
| 20260505140439 | 71 | 166 | 5.0 | 13.0 | 0.00 | 0.00 | 0.00 | 82 | 1006.2 |
| 20260505124852 | 70 | 176 | 2.0 | 12.0 | 0.00 | 0.00 | 0.00 | 84 | 1006.0 |
| 20260505124349 | 70 | 167 | 4.0 | 13.0 | 0.00 | 0.00 | 0.00 | 84 | 1005.9 |
| 20260505123845 | 70 | 154 | 7.0 | 15.0 | 0.00 | 0.00 | 0.00 | 84 | 1005.7 |
| 20260505123342 | 70 | 181 | 5.0 | 13.0 | 0.00 | 0.00 | 0.00 | 84 | 1005.9 |
| 20260505122838 | 70 | 148 | 6.0 | 10.0 | 0.00 | 0.00 | 0.00 | 84 | 1005.9 |
| 20260505122336 | 70 | 143 | 7.0 | 16.0 | 0.00 | 0.00 | 0.00 | 84 | 1005.7 |
| 20260505121832 | 70 | 179 | 6.0 | 10.0 | 0.00 | 0.00 | 0.00 | 84 | 1005.6 |
| 20260505121329 | 70 | 168 | 8.0 | 17.0 | 0.00 | 0.00 | 0.00 | 84 | 1005.6 |
| 20260505120825 | 70 | 164 | 5.0 | 11.0 | 0.00 | 0.00 | 0.00 | 84 | 1005.7 |
| 20260505120321 | 70 | 148 | 11.0 | 17.0 | 0.00 | 0.00 | 0.00 | 84 | 1005.4 |
| 20260505115820 | 70 | 139 | 7.0 | 12.0 | 0.00 | 0.00 | 0.00 | 83 | 1005.3 |
| 20260505115317 | 70 | 148 | 8.0 | 14.0 | 0.00 | 0.00 | 0.00 | 83 | 1005.4 |
| 20260505114815 | 70 | 159 | 6.0 | 9.0 | 0.00 | 0.00 | 0.00 | 83 | 1005.4 |
| 20260505114311 | 70 | 126 | 5.0 | 16.0 | 0.00 | 0.00 | 0.00 | 83 | 1005.4 |
| 20260505113808 | 70 | 137 | 10.0 | 14.0 | 0.00 | 0.00 | 0.00 | 83 | 1005.1 |
| 20260505113304 | 70 | 151 | 5.0 | 10.0 | 0.00 | 0.00 | 0.00 | 83 | 1005.1 |
| 20260505112800 | 70 | 160 | 4.0 | 15.0 | 0.00 | 0.00 | 0.00 | 83 | 1005.1 |
| 20260505112258 | 70 | 147 | 10.0 | 14.0 | 0.00 | 0.00 | 0.00 | 83 | 1005.3 |
| 20260505111758 | 70 | 172 | 7.0 | 15.0 | 0.00 | 0.00 | 0.00 | 83 | 1005.3 |
| 20260505111254 | 70 | 154 | 7.0 | 15.0 | 0.00 | 0.00 | 0.00 | 82 | 1005.2 |
| 20260505110750 | 70 | 171 | 4.0 | 15.0 | 0.00 | 0.00 | 0.00 | 83 | 1005.5 |
| 20260505110248 | 70 | 176 | 9.0 | 14.0 | 0.00 | 0.00 | 0.00 | 82 | 1005.2 |
| 20260505101722 | 70 | 168 | 8.0 | 18.0 | 0.00 | 0.00 | 0.00 | 82 | 1005.6 |
| 20260505101218 | 70 | 138 | 9.0 | 13.0 | 0.00 | 0.00 | 0.00 | 82 | 1005.6 |
| 20260505100715 | 70 | 173 | 3.0 | 10.0 | 0.00 | 0.00 | 0.00 | 82 | 1005.7 |
| 20260505100212 | 70 | 163 | 8.0 | 11.0 | 0.00 | 0.00 | 0.00 | 82 | 1005.5 |
| 20260505095707 | 70 | 155 | 8.0 | 13.0 | 0.00 | 0.00 | 0.00 | 82 | 1005.5 |
| 20260505095205 | 70 | 139 | 8.0 | 17.0 | 0.00 | 0.00 | 0.00 | 82 | 1005.5 |
| 20260505094700 | 70 | 168 | 4.0 | 15.0 | 0.00 | 0.00 | 0.00 | 82 | 1005.6 |
| 20260505094157 | 70 | 152 | 3.0 | 17.0 | 0.00 | 0.00 | 0.00 | 82 | 1005.6 |
| 20260505093653 | 70 | 139 | 9.0 | 12.0 | 0.00 | 0.00 | 0.00 | 82 | 1005.4 |
| 20260505093151 | 70 | 149 | 6.0 | 11.0 | 0.00 | 0.00 | 0.00 | 82 | 1005.4 |
| 20260505092648 | 70 | 151 | 11.0 | 16.0 | 0.00 | 0.00 | 0.00 | 82 | 1005.6 |
| 20260505092147 | 70 | 174 | 6.0 | 17.0 | 0.00 | 0.00 | 0.00 | 82 | 1005.7 |
| 20260505091643 | 70 | 159 | 9.0 | 14.0 | 0.00 | 0.00 | 0.00 | 82 | 1005.5 |